Location: *
(2.5500°S, 65.9667°W)
Time: 07:27:46
(UTC+00:00)

Explorer 7 - Pass Details

Date: 19 April 2024
Orbit: 467 x 625 km, 50.3° (Epoch: 26 May)

Event Time Altitude Azimuth Distance (km) Brightness Sun altitude
Rises 13:07:40 0° 234° (SW) 2,737 9.9 39.5°
Reaches altitude 10° 13:10:03 10° 245° (WSW) 1,868 9.2 40.1°
Maximum altitude 13:13:51 31° 307° (NW) 1,041 8.3 41.0°
Drops below altitude 10° 13:17:48 10° 10° (N) 1,940 10.0 41.9°
Sets 13:20:20 0° 20° (NNE) 2,861 10.9 42.5°
